Location: Oshawa
(43.9000°N, 78.8670°W)
Time: 19:24:33
(UTC-04:00)

Cosmos 1500 - Visible Passes

Search period start: 01 September 2014 00:00
Search period end: 11 September 2014 00:00
Orbit: 519 x 544 km, 82.5° (Epoch: 31 August)

Date Brightness Start Highest point End Pass type
(mag) Time Alt. Az. Time Alt. Az. Time Alt. Az.
01 Sep 5.1 21:22:23 10° SW 21:25:52 33° WNW 21:29:24 10° N visible
02 Sep 4.9 21:12:08 10° SW 21:15:40 35° WNW 21:19:15 10° N visible
03 Sep 4.8 21:01:52 10° SW 21:05:27 37° WNW 21:09:05 10° N visible
04 Sep 4.7 20:51:37 10° SSW 20:55:14 40° WNW 20:58:54 10° N visible
05 Sep 4.6 20:41:21 10° SSW 20:45:01 43° WNW 20:48:44 10° N visible
06 Sep 4.5 20:31:06 10° SSW 20:34:48 46° WNW 20:38:33 10° N visible
07 Sep 4.3 20:20:50 10° SSW 20:24:34 49° WNW 20:28:21 10° N visible
08 Sep 5.8 06:16:39 10° NNE 06:20:07 29° ENE 06:23:35 10° SE visible
08 Sep 4.2 20:10:35 10° SSW 20:14:20 53° W 20:18:09 10° N visible
09 Sep 5.9 06:06:28 10° NNE 06:09:53 27° ENE 06:13:18 10° SE visible
09 Sep 4.1 20:00:20 10° SSW 20:04:07 57° W 20:07:57 10° N visible
10 Sep 5.9 05:56:18 10° NNE 05:59:39 26° ENE 06:02:59 10° SE visible
